Location: Gebenbach
(49.5378°N, 11.8735°E)
Time: 02:26:06
(UTC+00:00)

Cosmos 1486 Rocket - Pass Details

Date: 29 October 2020
Orbit: 758 x 784 km, 74.1° (Epoch: 27 November)

Event Time Altitude Azimuth Distance (km) Brightness Sun altitude
Rises 17:04:27 0° 336° (NNW) 3,286 7.5 -11.8°
Reaches altitude 10° 17:06:51 10° 337° (NNW) 2,353 6.7 -12.1°
Maximum altitude 17:12:13 85° 66° (ENE) 793 4.0 -13.0°
Drops below altitude 10° 17:17:32 10° 156° (SSE) 2,328 6.3 -13.9°
Sets 17:19:54 0° 157° (SSE) 3,248 7.1 -14.3°
